Fort Irwin/Barstow, Bicycle L, CA

7:34 AM PDT on August 22, 2019 (GMT -0700)
Fort Irwin/Barstow, Bicycle L

Weather History for KBYS - July, 2019

Change the Weather History Date:

Sunday, July 21, 2019

  Actual Average (WUND) Record (WUND)
Temperature  
Mean Temperature 88 °F -  
Max Temperature 104 °F - - (-1)
Min Temperature 74 °F - - (-1)
Cooling Degree Days 23    
Growing Degree Days 38 (Base 50)    
Moisture  
Dew Point 38 °F    
Average Humidity 18    
Maximum Humidity 36    
Minimum Humidity 8    
Precipitation  
Precipitation 0.00 in - - ()
Sea Level Pressure  
Sea Level Pressure 29.92 in    
Wind  
Wind Speed 6 mph (South)    
Max Wind Speed 13 mph    
Max Gust Speed -    
Visibility 10 miles    
Events      
Averages and records for this station are not official NWS values.
T = Trace of Precipitation, MM = Missing Value Source: NWS Daily Summary

Daily Weather History Graph

Daily Weather History Graph

Search for Another Location

Airport or City:

Astronomy

Jul. 21, 2019 Rise Set
Actual Time 5:47 AM PDT 7:58 PM PDT
Civil Twilight 5:18 AM PDT 8:27 PM PDT
Nautical Twilight 4:43 AM PDT 9:02 PM PDT
Astronomical Twilight 4:05 AM PDT 9:39 PM PDT
Moon 11:04 PM PDT (7/21) 10:03 AM PDT (7/21)
Length of Visible Light 15h 08m
Length of Day
14h 11m
Waning Gibbous, 79% of the Moon is Illuminated
Jul 21
Waning Gibbous
Jul 24
Last Quarter
Jul 31
New
Aug 7
First Quarter
Aug 15
Full

Hourly Weather History & Observations

Time (PDT) Temp. Dew Point Humidity Pressure Visibility Wind Dir Wind Speed Gust Speed Precip Events Conditions
12:58 AM 80.8 °F 44.4 °F 28% 29.89 in 10.0 mi West 5.8 mph - N/A   Clear
1:58 AM 80.4 °F 44.8 °F 28% 29.89 in 10.0 mi SW 8.1 mph - N/A   Clear
2:58 AM 78.6 °F 44.2 °F 30% 29.89 in 10.0 mi Calm Calm - N/A   Clear
3:58 AM 78.6 °F 45.0 °F 30% 29.90 in 10.0 mi West 4.6 mph - N/A   Clear
4:58 AM 77.5 °F 44.8 °F 31% 29.91 in 10.0 mi Variable 5.8 mph - N/A   Clear
5:58 AM 74.1 °F 45.3 °F 36% 29.92 in 10.0 mi Calm Calm - N/A   Clear
6:58 AM 77.7 °F 45.5 °F 32% 29.94 in 10.0 mi Variable 6.9 mph - N/A   Clear
7:58 AM 82.6 °F 45.0 °F 27% 29.96 in 10.0 mi Variable 3.5 mph - N/A   Clear
8:58 AM 88.5 °F 44.1 °F 21% 29.96 in 10.0 mi Variable 5.8 mph - N/A   Clear
9:58 AM 88.3 °F 41.0 °F 19% 29.97 in 10.0 mi SSW 8.1 mph - N/A   Clear
10:58 AM 93.0 °F 35.1 °F 13% 29.97 in 10.0 mi Variable 6.9 mph - N/A   Clear
11:58 AM 95.7 °F 34.9 °F 12% 29.97 in 10.0 mi WSW 4.6 mph - N/A   Partly Cloudy
12:58 PM 97.3 °F 33.4 °F 11% 29.95 in 10.0 mi SE 12.7 mph - N/A   Partly Cloudy
1:58 PM 97.9 °F 32.0 °F 10% 29.94 in 10.0 mi ESE 8.1 mph - N/A   Clear
2:12 PM 100.4 °F 32.0 °F 9% 29.94 in 10.0 mi South 11.5 mph - N/A   Partly Cloudy
2:58 PM 101.1 °F 30.6 °F 8% 29.92 in 10.0 mi South 11.5 mph - N/A   Partly Cloudy
3:58 PM 102.9 °F 29.1 °F 8% 29.91 in 10.0 mi SE 9.2 mph - N/A   Clear
4:58 PM 102.7 °F 29.1 °F 8% 29.89 in 10.0 mi South 8.1 mph - N/A   Clear
5:58 PM 102.7 °F 30.6 °F 8% 29.87 in 10.0 mi Variable 6.9 mph - N/A   Clear
6:58 PM 102.4 °F 32.4 °F 9% 29.87 in 10.0 mi Variable 6.9 mph - N/A   Clear
7:58 PM 99.9 °F 32.4 °F 9% 29.87 in 10.0 mi Variable 3.5 mph - N/A   Clear
8:58 PM 98.4 °F 32.5 °F 10% 29.89 in 10.0 mi SE 8.1 mph - N/A   Clear
9:58 PM 94.3 °F 34.9 °F 12% 29.91 in 10.0 mi SSW 8.1 mph - N/A   Clear
10:58 PM 91.4 °F 37.9 °F 15% 29.93 in 10.0 mi Variable 3.5 mph - N/A   Clear
11:58 PM 90.9 °F 41.9 °F 18% 29.93 in 10.0 mi Variable 3.5 mph - N/A   Clear